User: anonymous   Login
Location: Unspecified
(0.0000°N, 0.0000°E)
Time: 10:16:44
(UTC+00:00)
Language:

OPTUS D1 - Orbit

View from above orbital plane
View from above orbital plane
View from above satellite
View from above satellite

Ground track
Ground track

The orbit data is extracted from the following two-line orbital elements,

1 29495U 06043B   16338.61049047 -.00000102  00000-0  00000+0 0  9997
2 29495   0.0153  19.8444 0003284 224.0801 208.7407  1.00272529 37224
Epoch (UTC): 03 December 2016 14:39:06
Eccentricity: 0.0003284
inclination: 0.0153°
perigee height: 35772 km
apogee height: 35800 km
right ascension of ascending node: 19.8444°
argument of perigee: 224.0801°
revolutions per day: 1.00272529
mean anomaly at epoch: 208.7407°
orbit number at epoch: 3722

The dashed part of the orbit path shows where the satellite is in the earth's shadow,  

DLR